Flag for Canada Weather past 2 weeks in Brantford, Ontario, Canada

46 °F

Sprinkles. Overcast.

Feels Like: 40 °F
Forecast: 46 / 57 °F
Wind: 16 mph from East

Location: Hamilton Airport

Current Time: Oct 4, 2015 at 1:57:08 AM

Latest Report: Oct 4, 2015 at 1:00 AM

Visibility: 15 mi

Pressure: 30.31 "Hg

Humidity: 93%

Dew point: 45 °F

Location of BrantfordLocation

Historic Weather in Brantford — Graph


Brantford temperature yesterday

Maximum temperature yesterday: 50 °F (at 12:00 AM)
Minimum temperature yesterday: 46 °F (at 6:00 AM)
Average temperature yesterday: 48 °F

Past Weeks' High & Low Weather Summary

High75 °F (Sep 23, 3:00 PM)100% (Sep 19, 1:00 AM)30.45 "Hg (Sep 19, 1:00 AM)
Low41 °F (Oct 1, 8:00 AM)44% (Sep 23, 3:00 PM)29.68 "Hg (Sep 19, 3:00 PM)
Average58 °F77%30.22 "Hg
* Reported Sep 19 1:00 AM — Oct 4 1:00 AM, Brantford, Weather by CustomWeather, © 2015

Note: Actual official high and low records may vary slightly from our data, if they occured in-between our weather recording intervals... More about our weather records


Brantford weather history for previous 24 hours

Time TempWeatherWind HumidityBarometerVisibility
1:00 AM
Sun, Oct 4
46 °FSprinkles. Overcast.16 mph93%30.31 "Hg15 mi
12:00 AM46 °FSprinkles. Overcast.18 mph93%30.32 "Hg15 mi
11:00 PM
Sat, Oct 3
46 °FSprinkles. Mostly cloudy.17 mph87%30.33 "Hg15 mi
10:00 PM48 °FSprinkles. Mostly cloudy.22 mph76%30.34 "Hg15 mi
9:00 PM48 °FSprinkles. Mostly cloudy.25 mph76%30.34 "Hg15 mi
8:00 PM48 °FSprinkles. Overcast.31 mph76%30.33 "Hg15 mi
7:00 PM48 °FSprinkles. Mostly cloudy.23 mph76%30.34 "Hg15 mi
6:00 PM48 °FSprinkles. Cloudy.28 mph76%30.33 "Hg15 mi
5:00 PM46 °FSprinkles. Mostly cloudy.25 mph82%30.33 "Hg15 mi
4:00 PM46 °FSprinkles. Mostly cloudy.26 mph87%30.33 "Hg15 mi
3:00 PM46 °FSprinkles. More clouds than sun.32 mph82%30.32 "Hg10 mi
2:00 PM46 °FSprinkles. Cloudy.29 mph82%30.33 "Hg15 mi
1:00 PM48 °FMore clouds than sun.31 mph71%30.35 "Hg15 mi
12:00 PM48 °FMostly cloudy.33 mph71%30.35 "Hg15 mi
11:00 AM48 °FMostly cloudy.29 mph71%30.36 "Hg15 mi
10:00 AM48 °FPartly sunny.35 mph71%30.37 "Hg15 mi
9:00 AM46 °FPartly sunny.28 mph76%30.37 "Hg15 mi
8:00 AM46 °FPartly cloudy.30 mph71%30.36 "Hg15 mi
7:00 AM46 °FPartly cloudy.30 mph66%30.37 "Hg15 mi
6:00 AM46 °FPassing clouds.32 mph66%30.36 "Hg15 mi
5:00 AM48 °FPassing clouds.30 mph62%30.37 "Hg15 mi
4:00 AM48 °FPassing clouds.25 mph62%30.35 "Hg15 mi
3:00 AM48 °FPassing clouds.29 mph62%30.36 "Hg15 mi
2:00 AM48 °FPassing clouds.29 mph62%30.38 "Hg15 mi
1:00 AM50 °FMostly cloudy.23 mph58%30.38 "Hg15 mi
Weather by CustomWeather, © 2015

See weather overviewHow to use our weather pages